Regional Weather Roundup
Issued by NWS

Home | Current Version | Previous Version | Text Only | Print | Product List | Glossary Off
Versions: 1 2 3 4 5 6 7 8 9 10 11 12 13 14 15 16 17 18 19 20 21 22 23 24 25 26 27 28 29 30 31 32 33 34 35 36 37 38 39 40 41 42 43 44 45 46 47 48 49 50

000
ASUS43 KMPX 180401
RWRMN
WEATHER ROUNDUP FOR MINNESOTA
NATIONAL WEATHER SERVICE TWIN CITIES/CHANHASSEN MN
1000 PM CST TUE JAN 17 2017


NOTE: "FAIR" INDICATES FEW OR NO CLOUDS BELOW 12,000 FEET WITH NO
SIGNIFICANT WEATHER AND/OR OBSTRUCTIONS TO VISIBILITY. N/A MEANS
CURRENT SKY AND/OR WEATHER CONDITIONS ARE NOT AVAILABLE.

MNZ060>063-068>070-180500-
   Twin Cities Metro

CITY           SKY/WX    TMP DP  RH WIND       PRES   REMARKS
TWIN CITIES    CLOUDY    30  26  85 SW9       30.00S WCI  22
ST PAUL        CLOUDY    30  29  96 S12       30.01S WCI  20
CRYSTAL        CLOUDY    28  24  85 SW6       29.98S WCI  22
BLAINE         CLOUDY    30  30 100 SW8       29.98R WCI  23
LAKEVILLE      CLOUDY    27  27 100 SW6       30.00S FOG     WCI  20
EDEN PRAIRIE   CLOUDY    29  27  92 SW8       29.99S FOG     WCI  21
SOUTH ST PAUL  CLOUDY    32  30  92 SW8       30.00S WCI  24
LAKE ELMO      CLOUDY    32  32 100 SW10      30.00S WCI  24
$$
MNZ001>005-007-008-013>017-022>024-027-028-180500-
   Northwest Minnesota

CITY           SKY/WX    TMP DP  RH WIND       PRES   REMARKS
BEMIDJI        CLOUDY    25  19  79 S6        29.78S WCI  18
HALLOCK        PTCLDY    19  18  93 S23       29.63F WCI   2
ROSEAU         CLOUDY    27  19  74 S16G22    29.64F WCI  14
WARROAD        CLOUDY    27  19  74 SW18G29   29.64F WCI  13
THIEF RVR FALL CLOUDY    23  18  81 SW21      29.73F WCI   8
CROOKSTON      CLOUDY    21  18  86 S21       29.76F WCI   6
FOSSTON        CLOUDY    23  19  86 S20       29.77S WCI   8
DETROIT LAKES  CLOUDY    19  18  93 S7        29.83R WCI  10
MOORHEAD       CLOUDY    18  14  86 S14       29.83R WCI   4
PARK RAPIDS    CLOUDY    17  11  77 S6        29.81F WCI   9
MAHNOMEN       FAIR      23  19  83 S18       29.78F WCI   9
$$
MNZ006-009>011-018-025>026-180500-
   North Central Minnesota

CITY           SKY/WX    TMP DP  RH WIND       PRES   REMARKS
BAUDETTE       CLOUDY    28  19  69 S16       29.66F WCI  16
FLAG ISLAND    CLOUDY    19  16  86 S14       29.62F WCI   6
INTL FALLS     CLOUDY    27  18  69 S6        29.71F WCI  20
WASKISH        CLOUDY    28  21  74 S7        29.73F WCI  21
BIG FORK       CLOUDY    25  18  74 S8        29.78F WCI  16
LONGVILLE      CLOUDY    23  16  74 S7        29.82F WCI  15
GRAND RAPIDS   CLOUDY    24  15  68 S8        29.83F WCI  15
CRANE LAKE     PTCLDY    27  18  69 S6        29.78F WCI  20
ORR            CLOUDY    23  16  74 CALM      29.75F
COOK           CLOUDY    27  18  69 S3        29.79F
WALKER         FAIR      23  17  80 SW7       29.80F WCI  14
$$
MNZ012-019>021-037-180500-
   Northeast Minnesota

CITY           SKY/WX    TMP DP  RH WIND       PRES   REMARKS
DULUTH         CLOUDY    27  19  72 SW10      29.84F WCI  17
ELY            CLOUDY    27  16  63 SW8       29.79F WCI  18
HIBBING        CLOUDY    22  12  65 S5        29.81F WCI  16
EVELETH        CLOUDY    24  13  63 S5        29.83F WCI  18
DULUTH HARBOR  CLOUDY    28  25  86 CALM      29.90F
TWO HARBORS    CLOUDY    27  21  80 SW3       29.84F
SILVER BAY     CLOUDY    16  14  93 CALM      29.83F
GRAND MARAIS     N/A     32  29  88 NW3       29.86S
G MARAIS ARPRT FOG       25  21  86 S3        29.80F VSB 1
$$
MNZ029>031-032-039>041-046>048-054>057-064-180500-
   West Central Minnesota

CITY           SKY/WX    TMP DP  RH WIND       PRES   REMARKS
FERGUS FALLS   CLOUDY    18  14  86 S12       29.90F WCI   5
WHEATON        CLOUDY    27  23  86 S12       29.87F WCI  16
MORRIS         CLOUDY    16  12  86 SE9       29.88F WCI   4
ALEXANDRIA     CLOUDY    19  16  88 S12       29.88F WCI   7
ELBOW LAKE     FAIR      17  15  91 S13       29.87F WCI   4
WADENA         CLOUDY    18  14  86 S9        29.84F WCI   6
GLENWOOD       CLOUDY    16  14  93 S9        29.90F WCI   4
APPLETON       CLOUDY    19  18  93 S7        29.91F WCI  10
ORTONVILLE     CLOUDY    16  12  86 CALM      29.89F
MADISON        CLOUDY    19  19 100 S13       29.92F WCI   7
WILLMAR        FAIR      14  12  92 CALM      29.95S FOG
$$
MNZ033>034-036-042>043-049>051-058-059-180500-
   Central Minnesota

CITY           SKY/WX    TMP DP  RH WIND       PRES   REMARKS
ST CLOUD       CLOUDY    18  17  96 S5        29.95S FOG     WCI  11
SAUK CENTRE    FAIR      13  11  92 S8        29.91F WCI   2
PAYNESVILLE    CLOUDY    19  19 100 S3        29.94S
AITKIN         CLOUDY    25  16  68 S8        29.85F WCI  16
PINE RIVER     CLOUDY    19  16  86 S7        29.88F WCI  10
BRAINERD       CLEAR     21  15  78 S10       29.87F WCI  10
STAPLES        CLOUDY    16  12  86 S9        29.86F WCI   4
LONG PRAIRIE   FAIR      12  10  92 SE7       29.90F WCI   2
LITTLE FALLS   CLOUDY    18  14  86 SE7       29.92F WCI   8
LITCHFIELD     CLOUDY    18  18 100 CALM      29.96S FOG
BUFFALO        CLOUDY    27  26  94 S6        29.98F FOG     WCI  21
MAPLE LAKE     FOG       25  25  98 S3        29.97F VSB 3/4
HUTCHINSON     FOG       26  26  99 S5        29.98F VSB 1/2 WCI  20
$$
MNZ037-044-045-052-053-180500-
   East Central Minnesota

CITY           SKY/WX    TMP DP  RH WIND       PRES   REMARKS
PRINCETON      CLOUDY    25  21  86 S3        29.96F
MORA           CLOUDY    27  27 100 SW12      29.97S WCI  16
CAMBRIDGE      CLOUDY    28  21  74 SW9       29.95S WCI  20
RUSH CITY      CLOUDY    28  27  93 SW6       29.96S WCI  22
MOOSE LAKE     CLOUDY    27  23  86 S8        29.88F WCI  18
HINCKLEY       CLOUDY    30  30 100 SW8       29.93F FOG     WCI  23
CLOQUET        CLOUDY    27  21  80 SW9       29.86F WCI  17
MCGREGOR       CLOUDY    25  21  86 S7        29.87F WCI  17
$$
MNZ071>073-080-081-089-090-097-098-180500-
   Southwest Minnesota

CITY           SKY/WX    TMP DP  RH WIND       PRES   REMARKS
MONTEVIDEO     CLOUDY    21  19  93 SW8       29.94F WCI  12
GRANITE FALLS  CLOUDY    18  16  93 SE8       29.96F WCI   7
CANBY            N/A     30  25  80 SW10G20   29.93F WCI  21
MARSHALL       CLOUDY    28  24  85 SW17      29.94F WCI  16
REDWOOD FALLS  CLOUDY    19  17  92 S5        29.96F WCI  12
OLIVIA         CLOUDY    21  19  93 S8        29.96S FOG     WCI  12
PIPESTONE      CLOUDY    25  25 100 SW6       29.96F WCI  18
WINDOM         CLOUDY    27  27 100 SW8       29.98F WCI  18
WORTHINGTON    CLOUDY    26  25  96 SW17      29.98F WCI  13
JACKSON        CLOUDY    27  25  93 SW8       30.00S WCI  18
TRACY          CLOUDY    29  26  88 SW21      29.95S WCI  15
SLAYTON        CLOUDY    26  25  96 SW18      29.96F WCI  12
$$
MNZ065>067-074>077-082>085-091>093-180500-
   South Central Minnesota

CITY           SKY/WX    TMP DP  RH WIND       PRES   REMARKS
NEW ULM        CLOUDY    25  23  93 S6        29.98F WCI  18
ST JAMES       CLOUDY    27  25  93 S7        30.00F WCI  19
FAIRMONT       CLOUDY    27  25  92 SW9       30.01  WCI  18
GLENCOE        CLOUDY    29  30 100 S3        29.97F FOG
FARIBAULT      CLOUDY    28  28 100 S6        30.01S WCI  22
OWATONNA       CLOUDY    28  28 100 SW9       30.01S FOG     WCI  20
WASECA         CLOUDY    30  28  93 S9        30.02F FOG     WCI  22
ALBERT LEA     FOG       28  28 100 SW5       30.01S VSB 3/4 WCI  23
$$
MNZ078>079-086>088-094>096-180500-
   Southeast Minnesota

CITY           SKY/WX    TMP DP  RH WIND       PRES   REMARKS
ROCHESTER      FOG       30  30 100 W12       30.01S VSB 3/4 WCI  20
RED WING       CLOUDY    34  30  86 W8        30.00F WCI  27
STANTON        CLOUDY    31  29  93 SW13      30.00R FOG     WCI  21
DODGE CENTER   CLOUDY    28  28 100 CALM      30.00S FOG
WINONA         CLOUDY    34  32  93 W5        30.03S WCI  30
AUSTIN         CLOUDY    28  28 100 SW8       30.01F FOG     WCI  20
PRESTON        CLOUDY    31  31  98 W9        30.02R FOG     WCI  23
$$
ABBREVIATIONS USED IN REMARKS
   TC - TEMPERATURES IN CELSIUS
  WCI - WIND CHILL INDEX
   HX - HEAT INDEX
  VSB - VISIBILITY
$$




USA.gov is the U.S. government's official web portal to all federal, state and local government web resources and services.